TAI582 MSLP-KIAD

Flight info

Callsign TAI582
Flight time N/A
Altitude 35000
Route ATUMA3F ATUMA UH225 TIRNA DCT KORTI UG521 CZM UB881 CUN UM219 MYDIA M219 CIGAR DCT DEANR Q109 CAMJO Q99 OGRAE DCT BZNGA DCT DORRN CAVLR6
Aircraft A320/M-SDE3FGHIRWY/LB1

Departure

Time 2026-04-15 18:39
Airport El Salvador International Airport Saint Óscar Arnulfo Romero y Galdámez (MSLP)

Arrival

Time N/A
Airport Washington Dulles International Airport (KIAD)
Time Latitude Longitude Altitude Speed Heading
2026-04-15 18:22 13.44533 -89.05369 94 ft 0 kts 340°
2026-04-15 18:30 13.44527 -89.05367 94 ft 5 kts 339°
2026-04-15 18:31 13.44495 -89.05355 92 ft 5 kts 340°
2026-04-15 18:31 13.44474 -89.05346 92 ft 2 kts 320°
2026-04-15 18:31 13.44466 -89.05338 92 ft 2 kts 285°
2026-04-15 18:31 13.44464 -89.05327 93 ft 2 kts 265°
2026-04-15 18:32 13.44465 -89.05316 92 ft 2 kts 257°
2026-04-15 18:32 13.44467 -89.05305 92 ft 2 kts 252°
2026-04-15 18:32 13.44468 -89.05303 91 ft 0 kts 252°
2026-04-15 18:34 13.44462 -89.05322 92 ft 8 kts 252°
2026-04-15 18:34 13.44414 -89.05386 92 ft 16 kts 200°
2026-04-15 18:34 13.44328 -89.05448 94 ft 17 kts 247°
2026-04-15 18:35 13.44285 -89.05561 94 ft 17 kts 250°
2026-04-15 18:35 13.44242 -89.05680 93 ft 18 kts 249°
2026-04-15 18:35 13.44197 -89.05803 92 ft 18 kts 249°
2026-04-15 18:35 13.44153 -89.05925 94 ft 19 kts 249°
2026-04-15 18:36 13.44108 -89.06053 92 ft 19 kts 251°
2026-04-15 18:36 13.44061 -89.06179 94 ft 19 kts 249°
2026-04-15 18:36 13.44016 -89.06308 93 ft 19 kts 250°
2026-04-15 18:36 13.43970 -89.06440 174 ft 20 kts 250°
2026-04-15 18:37 13.43921 -89.06577 174 ft 21 kts 250°
2026-04-15 18:37 13.43870 -89.06719 172 ft 22 kts 250°
2026-04-15 18:37 13.43818 -89.06866 171 ft 22 kts 250°
2026-04-15 18:37 13.43758 -89.06991 172 ft 17 kts 205°
2026-04-15 18:38 13.43637 -89.06965 166 ft 15 kts 161°
2026-04-15 18:38 13.43620 -89.06895 167 ft 8 kts 69°
2026-04-15 18:38 13.43622 -89.06890 164 ft 0 kts 69°
2026-04-15 18:38 13.43661 -89.06779 166 ft 49 kts 70°
2026-04-15 18:39 13.43858 -89.06227 91 ft 113 kts 70°
2026-04-15 18:39 13.44191 -89.05293 96 ft 164 kts 70°
2026-04-15 18:39 13.44618 -89.04106 421 ft 179 kts 71°
2026-04-15 18:39 13.44748 -89.02851 972 ft 177 kts 96°
2026-04-15 18:40 13.44646 -89.01587 1595 ft 178 kts 97°
2026-04-15 18:40 13.44521 -89.00303 2029 ft 187 kts 96°
2026-04-15 18:40 13.44389 -88.98894 2151 ft 209 kts 95°
2026-04-15 18:40 13.44260 -88.97324 2308 ft 233 kts 94°
2026-04-15 18:41 13.44141 -88.95588 2609 ft 254 kts 92°
2026-04-15 18:41 13.44036 -88.93778 3415 ft 248 kts 91°
2026-04-15 18:41 13.43944 -88.92023 4277 ft 246 kts 90°
2026-04-15 18:41 13.43858 -88.90257 4965 ft 249 kts 90°
2026-04-15 18:42 13.43779 -88.88471 5630 ft 252 kts 90°
2026-04-15 18:42 13.43704 -88.86667 6280 ft 255 kts 89°
2026-04-15 18:42 13.43630 -88.84828 6872 ft 259 kts 90°
2026-04-15 18:42 13.43552 -88.82970 7502 ft 262 kts 90°
2026-04-15 18:43 13.43478 -88.81087 8120 ft 265 kts 87°
2026-04-15 18:43 13.43684 -88.79174 8694 ft 267 kts 73°
2026-04-15 18:43 13.44450 -88.77470 9228 ft 269 kts 51°
2026-04-15 18:43 13.45871 -88.76171 9485 ft 282 kts 24°
2026-04-15 18:44 13.47783 -88.75528 9904 ft 291 kts 14°
2026-04-15 18:44 13.49789 -88.74989 10191 ft 308 kts 14°
2026-04-15 18:44 13.51941 -88.74410 10315 ft 330 kts 15°
2026-04-15 18:44 13.54225 -88.73790 10433 ft 349 kts 15°
2026-04-15 18:45 13.56636 -88.73130 10565 ft 367 kts 15°
2026-04-15 18:45 13.59138 -88.72442 10916 ft 376 kts 15°
2026-04-15 18:45 13.61682 -88.71738 11410 ft 380 kts 16°
2026-04-15 18:45 13.64246 -88.71027 11933 ft 384 kts 16°
2026-04-15 18:46 13.66842 -88.70309 12448 ft 387 kts 16°
2026-04-15 18:46 13.69456 -88.69588 12939 ft 391 kts 16°
2026-04-15 18:46 13.72091 -88.68864 13433 ft 394 kts 17°
2026-04-15 18:46 13.74754 -88.68131 13895 ft 397 kts 17°
2026-04-15 18:47 13.77436 -88.67392 14307 ft 400 kts 17°
2026-04-15 18:47 13.80136 -88.66643 14765 ft 403 kts 17°
2026-04-15 18:47 13.82848 -88.65890 15190 ft 406 kts 17°
2026-04-15 18:47 13.85581 -88.65133 15597 ft 408 kts 17°
2026-04-15 18:48 13.88341 -88.64370 15975 ft 412 kts 16°
2026-04-15 18:48 13.91118 -88.63608 16382 ft 414 kts 16°
2026-04-15 18:48 13.93913 -88.62843 16826 ft 417 kts 16°
2026-04-15 18:48 13.96721 -88.62073 17212 ft 419 kts 16°
2026-04-15 18:49 13.99549 -88.61293 17608 ft 421 kts 16°
2026-04-15 18:49 14.02387 -88.60505 17995 ft 424 kts 16°
2026-04-15 18:49 14.05234 -88.59714 18346 ft 426 kts 16°
2026-04-15 18:49 14.08112 -88.58917 18706 ft 428 kts 16°
2026-04-15 18:50 14.10986 -88.58121 19024 ft 430 kts 16°
2026-04-15 18:50 14.13883 -88.57320 19341 ft 431 kts 16°
2026-04-15 18:50 14.16780 -88.56518 19658 ft 432 kts 16°
2026-04-15 18:50 14.19694 -88.55709 19973 ft 434 kts 16°
2026-04-15 18:51 14.22613 -88.54900 20341 ft 434 kts 16°
2026-04-15 18:51 14.25560 -88.54083 20676 ft 434 kts 16°
2026-04-15 18:51 14.28478 -88.53277 21021 ft 434 kts 16°
2026-04-15 18:51 14.29025 -88.53125 21082 ft 435 kts 15°
2026-04-15 18:52 14.30355 -88.52761 21183 ft 436 kts 16°
2026-04-15 18:52 14.33289 -88.51953 21503 ft 436 kts 15°
2026-04-15 18:52 14.36218 -88.51141 21808 ft 438 kts 15°
2026-04-15 18:52 14.39168 -88.50320 22109 ft 439 kts 15°
2026-04-15 18:53 14.42134 -88.49494 22359 ft 441 kts 15°
2026-04-15 18:53 14.45093 -88.48671 22636 ft 442 kts 15°
2026-04-15 18:53 14.48079 -88.47840 22896 ft 443 kts 15°
2026-04-15 18:53 14.51060 -88.47011 23120 ft 446 kts 15°
2026-04-15 18:54 14.54049 -88.46180 23387 ft 446 kts 15°
2026-04-15 18:54 14.57051 -88.45346 23588 ft 448 kts 14°
2026-04-15 18:54 14.60073 -88.44508 23794 ft 449 kts 14°
2026-04-15 18:54 14.63099 -88.43668 23972 ft 450 kts 14°
2026-04-15 18:55 14.66131 -88.42826 24137 ft 452 kts 14°
2026-04-15 18:55 14.69165 -88.41983 24320 ft 453 kts 14°
2026-04-15 18:55 14.72219 -88.41133 24485 ft 455 kts 14°
2026-04-15 18:55 14.75271 -88.40284 24670 ft 455 kts 14°
2026-04-15 18:56 14.78340 -88.39431 24843 ft 457 kts 14°
2026-04-15 18:56 14.81410 -88.38577 25014 ft 458 kts 14°
2026-04-15 18:56 14.84486 -88.37721 25182 ft 459 kts 14°
2026-04-15 18:56 14.87579 -88.36860 25334 ft 461 kts 14°
2026-04-15 18:57 14.90676 -88.35997 25497 ft 462 kts 14°
2026-04-15 18:57 14.93782 -88.35131 25659 ft 463 kts 14°
2026-04-15 18:57 14.96894 -88.34263 25828 ft 464 kts 13°
2026-04-15 18:57 15.00006 -88.33394 25985 ft 464 kts 13°
2026-04-15 18:58 15.03129 -88.32522 26151 ft 465 kts 13°
2026-04-15 18:58 15.06263 -88.31649 26264 ft 466 kts 13°
2026-04-15 18:58 15.09404 -88.30772 26387 ft 467 kts 13°
2026-04-15 18:58 15.12581 -88.29882 26522 ft 468 kts 13°
2026-04-15 18:59 15.15731 -88.28997 26649 ft 469 kts 13°
2026-04-15 18:59 15.18876 -88.28116 26783 ft 469 kts 13°
2026-04-15 18:59 15.22026 -88.27234 26950 ft 468 kts 13°
2026-04-15 18:59 15.25163 -88.26360 27134 ft 468 kts 13°
2026-04-15 19:00 15.28307 -88.25483 27335 ft 467 kts 13°
2026-04-15 19:00 15.31437 -88.24608 27534 ft 466 kts 13°
2026-04-15 19:00 15.34569 -88.23729 27728 ft 465 kts 13°
2026-04-15 19:00 15.37687 -88.22855 27888 ft 465 kts 13°
2026-04-15 19:01 15.40812 -88.21983 28086 ft 464 kts 12°
2026-04-15 19:01 15.43938 -88.21113 28261 ft 464 kts 12°
2026-04-15 19:01 15.47052 -88.20243 28457 ft 463 kts 12°
2026-04-15 19:01 15.50156 -88.19373 28660 ft 462 kts 12°
2026-04-15 19:02 15.53256 -88.18501 28860 ft 462 kts 12°
2026-04-15 19:02 15.56361 -88.17625 29054 ft 461 kts 12°
2026-04-15 19:02 15.59459 -88.16754 29239 ft 461 kts 12°
2026-04-15 19:02 15.62362 -88.15939 29434 ft 461 kts 12°